Theta_e
331 328 328 328 327 327 326 325 325 324 324 324 324 323 323 322 322 322 321 321 320 319 318 317 316 315 314 313 312 312 312 313 313 313 313 314 314 314 314 315 315 313 312 311 310 312 315 315 314 312 311 309 308 308 307 306 303 303 307 308 305 305 307
330 328 327 327 326 326 325 324 323 322 322 321 321 321 320 320 319 319 319 319 318 317 316 315 314 314 313 312 312 312 312 313 313 313 313 312 311 311 311 311 311 311 310 309 308 308 311 312 312 310 308 306 305 305 304 303 301 302 305 306 303 302 304
328 327 326 325 324 324 323 322 321 320 319 319 319 318 318 317 317 317 317 317 316 315 314 313 313 313 313 312 312 312 312 312 312 311 311 310 309 308 308 308 308 308 308 308 306 305 306 308 307 306 305 304 303 303 303 301 301 302 304 305 302 301 303
328 327 325 323 322 323 322 320 320 319 318 317 317 316 316 315 315 316 315 315 314 313 313 313 313 313 313 313 312 311 311 311 310 310 309 308 307 306 306 305 305 305 305 305 304 303 303 304 303 303 302 302 302 302 302 301 301 302 303 303 301 301 302
330 327 325 323 322 322 321 319 318 317 316 316 315 315 314 314 314 314 314 314 313 312 312 312 312 312 312 312 311 310 309 309 308 308 307 305 305 304 303 303 303 303 302 302 302 301 301 301 301 301 301 301 302 301 301 301 301 302 303 302 300 301 301
329 327 325 324 323 322 321 319 317 316 315 314 314 314 314 314 314 313 313 312 311 311 311 311 311 311 311 310 309 308 308 307 307 306 304 303 302 301 301 301 301 301 301 300 300 300 300 300 300 300 301 301 301 301 301 301 301 301 301 301 300 300 300
327 326 325 324 323 321 320 318 316 315 314 313 313 313 313 313 313 313 312 311 310 310 310 310 310 310 309 308 308 307 306 305 305 304 302 301 300 300 300 300 300 300 300 300 299 299 299 300 300 300 300 300 300 301 301 300 300 300 300 300 300 300 300
327 326 324 323 322 320 319 317 316 314 313 313 313 312 312 312 311 311 310 309 309 310 309 309 309 308 308 307 306 306 305 304 303 301 300 300 300 300 299 299 299 299 299 299 299 299 299 299 299 299 300 299 300 300 300 300 300 300 300 300 299 300 299
326 325 323 321 320 319 318 316 315 313 313 313 312 312 311 310 309 309 309 309 309 309 309 309 308 308 307 306 306 304 303 302 300 299 299 300 300 299 299 299 299 299 298 298 298 298 298 298 299 299 299 299 299 300 299 299 300 299 299 299 299 299 299
326 324 322 320 319 318 317 315 314 313 313 312 312 311 310 309 308 309 308 308 308 308 308 308 307 307 306 305 304 303 301 300 299 299 299 299 299 299 298 298 298 298 298 297 297 298 298 298 298 298 299 299 299 299 299 299 299 299 299 299 299 299 299
325 324 321 319 318 316 315 314 314 313 312 312 311 311 310 309 309 308 308 307 307 307 307 307 306 305 305 303 302 301 299 299 299 299 298 298 298 298 298 298 298 298 297 297 298 298 298 298 298 298 298 299 299 299 299 299 299 299 299 299 299 299 298
324 322 320 319 317 315 313 313 313 312 311 310 310 310 310 309 309 308 307 307 306 306 305 305 305 304 303 301 300 299 299 298 298 298 298 298 298 298 298 298 297 297 297 298 298 298 298 298 298 298 298 298 298 298 299 299 298 299 299 298 298 298 298
321 320 318 317 316 314 312 312 311 310 310 309 310 309 309 309 308 307 306 306 305 305 304 304 303 302 301 300 299 299 298 298 298 298 298 298 298 298 298 298 298 298 298 298 298 298 298 298 298 298 298 298 298 298 298 299 298 298 298 298 298 298 298
320 318 317 316 314 313 312 310 309 309 308 308 308 309 309 308 307 306 306 305 305 304 303 302 301 300 300 299 299 298 298 298 298 298 298 298 298 298 298 298 298 298 298 298 298 298 298 298 298 298 298 298 298 298 298 298 298 298 298 298 298 298 298
318 317 316 314 313 312 311 309 308 307 307 306 306 308 308 307 306 306 305 304 304 303 302 301 300 299 299 299 298 298 298 298 298 298 298 298 298 298 298 298 298 298 298 298 298 298 298 298 298 298 298 298 298 298 298 298 298 298 298 298 298 298 298
317 315 314 312 311 310 309 307 307 306 306 305 305 307 307 307 306 305 304 304 303 302 301 299 298 299 299 299 298 298 298 298 298 298 298 298 298 297 297 297 297 297 297 297 297 297 297 297 297 297 298 298 298 298 298 298 298 297 297 297 297 297 297
315 314 312 310 308 307 307 306 306 305 304 303 304 306 307 306 305 305 304 303 302 301 299 298 298 299 299 298 298 298 298 298 298 298 298 297 297 296 296 296 296 296 296 296 296 296 296 296 296 297 297 297 297 297 297 297 297 297 297 297 297 297 297
314 312 310 308 307 306 306 305 305 304 302 302 304 306 306 305 305 304 303 303 301 299 297 297 298 298 298 298 298 298 298 297 297 297 296 296 296 296 296 296 296 296 295 295 295 295 296 296 296 296 296 296 296 297 297 297 297 297 297 297 297 297 297
313 310 308 306 306 305 305 304 304 303 300 300 304 306 305 305 304 303 303 302 299 297 297 297 298 298 298 298 298 298 297 297 296 296 296 296 296 296 296 296 296 296 296 295 295 295 296 296 296 296 296 296 296 296 296 296 296 296 297 297 296 296 297
311 309 306 305 305 304 304 303 302 300 298 300 304 305 305 304 303 303 302 300 298 297 298 298 298 298 298 298 298 297 297 297 296 296 296 296 296 295 295 296 296 296 296 295 295 295 296 296 296 296 296 296 296 296 296 295 296 296 296 296 296 296 296
309 307 305 304 303 303 301 300 298 297 298 301 305 305 304 304 303 302 302 300 298 298 299 298 298 298 298 298 298 297 297 297 296 296 296 295 295 295 296 296 296 296 295 295 295 295 295 296 296 296 296 296 295 295 295 295 295 295 295 295 295 295 296
306 305 304 303 302 301 299 297 297 297 299 302 304 304 304 304 302 302 301 299 298 298 299 299 299 298 298 298 298 297 297 297 296 296 295 295 295 296 296 296 296 296 295 295 295 295 295 295 295 296 296 295 295 295 295 295 294 295 295 295 295 295 295
305 304 303 303 302 300 298 297 297 299 300 302 304 304 304 303 302 302 301 300 299 299 300 300 299 299 299 298 298 297 297 296 296 296 295 295 296 296 296 296 296 295 295 295 295 295 295 295 295 295 295 295 295 294 294 294 294 294 294 294 294 294 294
304 304 303 302 302 300 298 297 298 300 301 302 302 303 303 303 302 302 301 300 300 300 300 300 300 300 299 299 298 297 297 296 296 295 295 295 296 296 296 296 295 295 295 295 294 295 294 294 294 295 295 295 295 295 294 294 294 294 294 294 294 294 294
304 303 303 302 302 300 297 297 299 300 301 301 302 302 302 302 302 302 301 301 300 300 300 300 300 300 300 299 298 297 297 296 295 295 296 296 296 296 296 296 295 295 295 294 294 294 293 293 294 295 295 295 295 295 295 294 294 293 293 293 293 293 293
304 303 302 302 301 299 296 297 299 300 300 301 301 301 302 302 302 302 301 301 301 301 301 301 300 300 300 299 298 297 296 295 295 296 296 296 296 296 295 295 295 295 294 294 293 293 293 292 293 295 295 295 295 295 295 295 295 294 294 293 293 293 293
303 302 302 301 299 297 296 297 299 300 300 300 301 301 301 301 301 301 301 301 301 301 301 301 301 300 300 300 298 297 296 295 295 296 296 297 297 296 295 295 295 294 294 294 292 292 292 292 293 294 295 295 295 295 295 295 295 295 294 294 293 293 293
303 302 301 300 298 296 296 297 298 299 300 300 300 300 301 301 301 301 301 301 301 301 301 301 301 301 300 300 298 297 295 295 296 296 297 297 297 296 295 295 294 294 294 293 292 291 291 292 293 294 294 294 295 295 295 295 295 295 295 294 294 293 294
303 302 300 299 298 296 296 296 297 298 299 300 300 300 300 301 301 301 301 301 301 301 301 301 301 301 300 300 299 297 296 295 296 296 296 297 296 295 295 295 294 293 293 293 292 291 291 291 292 293 294 294 294 294 295 295 295 295 295 295 295 294 294
303 302 301 300 299 298 296 295 296 297 298 299 300 300 300 300 300 300 301 301 301 301 301 301 301 301 300 300 299 298 297 296 296 296 296 296 296 295 295 294 293 293 292 292 292 291 290 291 292 293 293 293 294 294 294 295 295 295 295 295 295 295 295
303 302 301 301 301 299 296 295 296 296 298 299 299 299 300 300 300 300 301 301 301 301 301 300 301 300 300 300 299 298 298 297 296 296 296 296 295 294 294 294 293 293 292 292 292 291 290 290 291 293 293 293 293 294 294 294 295 295 295 295 295 295 295
303 303 302 302 301 299 297 295 295 296 297 298 298 299 299 299 299 300 300 300 301 301 300 300 300 300 299 299 299 298 298 297 296 296 296 296 295 294 294 294 294 293 292 291 291 291 290 290 291 292 292 292 293 293 293 294 294 294 295 295 294 294 295
304 303 303 303 302 300 297 296 295 295 296 297 297 298 298 298 298 299 299 299 300 300 300 299 299 299 299 299 299 298 298 297 296 295 296 295 295 294 293 293 293 293 292 291 291 291 290 290 290 291 292 292 292 292 293 293 294 294 294 294 294 294 294
305 304 304 303 302 300 299 297 295 295 295 296 296 296 296 297 297 297 297 297 298 298 299 299 299 299 299 299 299 298 298 296 295 296 296 295 295 295 294 293 293 293 292 292 291 291 290 289 289 290 291 291 292 292 292 293 293 294 294 294 294 294 294
304 304 304 303 302 301 301 299 297 295 295 295 295 295 295 295 295 295 295 295 296 296 296 297 298 298 299 299 298 298 297 295 295 296 296 295 295 295 294 294 293 293 293 292 291 291 290 289 289 290 290 291 291 292 292 292 293 293 294 294 294 293 293
304 304 304 304 303 302 302 301 299 295 294 295 295 294 295 295 295 295 295 295 295 295 295 295 295 296 297 297 297 297 296 295 295 295 295 295 295 294 294 294 293 293 293 293 292 290 290 289 289 289 290 290 291 291 291 291 292 293 293 293 292 292 292
304 304 304 304 303 303 302 302 301 297 294 295 296 296 295 295 295 295 295 295 295 295 295 294 294 294 295 295 295 295 295 295 295 295 295 295 295 294 294 294 293 293 293 293 292 291 289 289 289 289 289 289 290 290 291 291 291 291 292 292 291 290 291
Wind_Speed
23 22 22 22 20 18 16 14 12 10 8 6 5 4 4 5 5 6 6 7 8 9 9 10 12 13 14 16 17 19 20 20 19 20 20 17 16 16 15 15 16 16 17 17 15 8 3 5 7 9 15 20 18 15 19 24 26 24 22 24 25 24 26
23 24 23 22 20 18 16 14 11 10 8 7 6 5 6 6 6 7 8 9 11 11 12 13 15 15 17 20 21 21 21 20 20 20 22 22 21 19 17 16 16 15 15 17 21 17 7 5 6 6 15 21 18 18 22 26 27 22 20 22 24 26 27
24 24 22 21 21 18 16 14 12 10 9 9 9 8 8 8 9 10 11 13 13 14 14 15 16 17 18 20 20 20 19 21 21 22 23 22 22 22 20 19 19 17 14 13 18 19 11 5 6 8 14 17 16 18 22 28 28 22 20 20 25 30 28
27 26 24 22 20 19 17 14 12 11 11 11 11 11 11 11 12 13 14 15 15 15 16 17 18 18 18 18 19 19 20 21 21 21 21 21 20 21 21 22 22 19 15 12 14 16 12 7 7 7 13 19 15 14 21 26 24 21 19 20 27 32 28
28 27 25 23 21 18 17 15 13 12 12 12 12 13 13 13 14 15 16 16 16 17 18 19 19 18 19 18 19 20 20 21 20 19 20 20 20 20 21 21 21 21 20 16 15 15 13 9 8 6 11 18 13 13 23 25 22 19 15 20 29 30 27
27 26 25 23 20 18 16 15 14 14 14 14 15 15 15 14 15 16 17 17 18 19 19 19 19 18 19 19 20 21 21 20 20 20 21 20 20 20 20 20 21 21 20 18 17 16 14 12 11 8 10 14 11 13 21 21 21 18 13 22 31 28 28
26 25 24 22 20 17 16 15 15 15 16 17 17 17 16 16 16 16 17 19 19 20 19 18 18 18 19 20 21 21 21 20 19 20 20 21 21 22 22 22 22 21 19 18 17 17 16 14 13 11 12 13 10 11 15 17 19 17 15 26 31 27 31
25 24 23 21 19 18 17 16 16 16 18 19 18 18 17 16 17 18 19 20 20 19 18 18 19 19 19 21 21 21 21 19 19 20 21 22 23 23 23 22 21 20 18 17 17 17 17 15 14 13 13 11 7 7 9 12 15 16 20 29 29 27 32
25 24 23 21 20 18 17 17 18 18 19 19 19 18 17 18 20 22 21 20 18 18 19 19 20 20 19 20 20 20 20 19 20 22 22 22 22 21 20 20 19 19 17 16 16 16 16 15 14 14 14 13 9 7 7 9 10 13 22 30 29 29 34
24 23 23 22 20 18 17 18 19 20 19 19 19 18 19 20 22 22 20 20 20 21 21 20 20 19 19 20 20 20 21 20 22 23 22 21 20 19 19 19 19 19 19 19 19 18 17 17 16 15 15 14 12 8 6 8 8 12 24 31 29 32 38
24 23 23 22 20 19 20 20 21 21 20 20 19 19 19 21 22 21 21 22 23 22 22 20 19 18 18 20 21 22 22 22 23 24 22 22 22 21 22 22 22 22 23 23 22 20 19 18 17 16 14 13 13 10 7 8 8 13 25 31 30 33 39
24 24 23 22 20 21 22 22 22 22 22 20 20 20 20 21 21 21 22 23 23 22 21 19 18 18 19 21 23 23 23 23 25 25 24 24 24 25 25 25 25 24 23 23 21 20 19 17 17 16 15 14 14 13 11 8 7 14 23 27 30 34 35
25 24 23 21 21 22 23 23 23 23 23 20 20 20 20 21 22 22 23 23 22 21 20 19 18 19 22 24 24 24 24 25 27 27 26 25 25 26 26 26 25 24 23 22 22 21 20 19 18 17 17 16 15 13 12 10 7 14 23 24 27 32 33
25 23 22 22 23 23 23 23 24 23 22 20 19 19 20 21 22 23 23 22 21 20 20 19 19 21 24 25 25 25 25 27 28 27 26 26 26 26 26 26 25 23 23 22 22 21 20 19 18 17 16 16 17 16 14 12 10 14 23 27 27 30 32
24 23 23 23 23 24 24 24 24 22 21 19 18 19 21 22 22 23 23 22 22 21 20 20 21 23 26 26 26 26 26 28 28 27 27 26 26 25 25 25 24 23 22 22 21 21 20 19 19 18 18 17 18 19 17 16 14 14 20 29 31 32 33
23 23 23 24 24 24 24 24 22 20 20 19 18 20 21 22 23 23 23 23 22 22 22 22 23 25 26 26 26 26 27 28 27 27 27 26 24 24 24 23 23 22 22 21 21 20 20 20 20 19 20 20 20 21 21 20 18 17 20 27 31 32 33
24 24 24 24 25 25 24 23 21 19 19 19 20 22 22 23 24 24 24 24 23 22 23 24 25 25 25 26 26 26 26 27 27 27 25 24 23 22 22 22 22 21 22 22 21 20 20 20 20 20 21 21 21 22 24 24 22 21 21 24 29 31 31
25 24 25 25 25 25 24 22 20 18 18 20 22 24 24 24 24 24 24 24 23 23 24 24 25 25 24 24 24 25 26 26 25 24 23 22 21 20 20 20 20 20 21 22 22 21 20 20 20 20 21 22 22 23 24 25 25 24 23 23 28 30 31
26 25 26 26 25 24 23 21 19 18 18 22 25 25 25 26 25 25 24 24 24 26 26 26 25 24 23 22 22 23 24 24 23 22 21 20 19 19 19 19 19 20 21 21 22 21 20 21 21 21 22 22 23 24 25 26 26 26 24 24 26 29 30
27 27 27 27 25 23 21 20 19 19 20 24 27 27 27 27 26 25 25 25 27 28 28 28 26 24 23 21 21 22 22 22 21 20 19 19 18 18 19 19 20 21 21 21 22 21 21 21 21 21 21 23 24 24 25 26 27 26 25 25 25 27 28
29 29 28 27 25 22 21 19 19 21 23 25 27 27 28 28 27 26 25 26 27 27 27 27 26 25 23 21 20 20 20 20 20 19 18 18 18 18 19 20 20 21 21 21 20 20 21 21 21 21 21 22 23 24 25 26 26 26 25 24 24 26 27
30 30 28 27 24 22 21 20 21 23 24 26 28 28 28 28 27 26 25 26 25 24 23 24 23 23 23 22 20 20 19 18 18 17 17 17 17 18 18 18 19 20 19 19 18 18 19 20 20 20 21 21 23 24 24 26 26 25 25 24 24 25 25
30 30 29 27 25 22 21 22 23 24 25 27 28 28 28 28 27 26 26 25 24 21 20 20 20 20 20 20 20 19 18 17 16 15 15 16 16 16 17 17 17 18 18 18 17 17 18 19 18 18 18 20 22 23 24 26 26 25 24 23 24 26 24
31 30 29 27 25 22 22 22 24 25 27 28 27 28 28 27 27 25 25 24 22 20 19 18 17 16 16 17 17 17 17 16 15 15 14 15 15 15 15 16 16 17 18 18 18 17 18 19 18 16 16 18 20 22 25 25 26 27 25 24 26 27 24
31 30 29 27 25 22 22 23 25 27 27 27 27 27 27 27 26 25 23 23 21 20 18 16 15 14 14 14 15 15 15 15 15 15 14 14 14 15 15 15 16 16 17 18 18 18 18 19 18 16 16 17 17 20 23 25 26 28 27 25 26 28 28
31 30 29 28 25 23 23 24 26 27 27 27 27 26 26 26 25 24 23 22 20 19 17 15 14 13 13 13 13 14 14 15 15 14 14 14 13 14 15 15 15 15 16 17 18 18 18 19 18 17 16 17 18 20 22 24 26 27 28 27 26 29 31
31 30 30 28 25 23 23 24 26 26 27 27 26 26 26 25 24 23 22 20 19 17 16 14 13 12 13 12 12 13 14 14 14 13 12 12 13 13 14 14 15 15 15 16 17 18 19 19 19 18 18 18 19 20 22 25 27 28 29 30 28 30 32
31 31 30 28 26 25 24 24 25 26 26 26 26 25 25 24 23 22 20 18 17 15 14 13 13 13 14 14 12 12 12 13 12 11 10 11 11 11 12 13 14 14 14 15 16 18 19 19 18 19 19 19 20 21 22 25 27 28 29 30 30 31 33
32 31 31 29 27 26 24 24 24 25 26 26 25 25 24 23 22 21 19 17 16 15 14 13 13 14 14 14 12 11 11 11 9 9 9 10 10 9 10 11 12 13 13 13 15 17 18 18 18 19 20 20 21 21 22 24 26 27 28 29 30 32 33
32 32 31 30 28 26 25 24 23 24 26 26 25 24 23 22 21 20 18 17 16 16 16 15 15 14 14 13 11 9 9 8 8 7 7 8 8 8 9 10 11 12 12 12 14 16 18 19 19 19 20 21 22 23 23 23 25 26 28 28 30 33 34
33 32 31 30 29 27 25 24 23 23 25 26 26 24 23 22 20 19 18 17 16 17 17 16 15 14 13 11 9 8 7 6 5 5 5 6 7 7 8 9 10 11 12 12 13 15 18 19 18 19 20 21 22 23 24 24 26 27 29 30 32 34 36
32 32 31 30 29 27 26 25 24 23 24 26 26 25 23 22 20 18 17 16 16 16 16 16 14 13 13 11 8 7 6 5 4 4 5 6 6 7 8 8 8 10 10 11 12 14 17 18 18 17 18 19 21 23 23 24 25 27 30 32 34 36 38
32 31 30 29 28 27 26 25 24 24 25 25 26 24 23 22 20 18 17 15 14 14 14 15 14 12 12 10 8 7 6 5 5 5 4 5 5 6 8 8 8 9 10 11 11 13 15 17 17 16 16 18 20 21 21 22 23 25 28 31 34 36 37
31 28 28 29 29 28 26 25 25 26 26 26 26 24 23 22 20 18 17 15 14 13 13 13 13 12 11 10 8 7 6 6 6 5 3 3 4 5 7 8 8 9 10 11 12 12 14 16 16 15 15 15 16 17 19 21 22 23 26 29 32 35 37
32 29 28 29 30 29 27 26 25 25 26 26 26 25 23 22 21 19 17 15 14 13 12 12 12 11 10 9 8 7 7 7 7 4 2 2 3 3 5 7 8 8 9 11 12 12 13 15 15 15 14 14 14 16 18 20 21 23 25 28 31 34 36
32 32 31 30 30 29 28 27 25 25 27 27 26 25 24 22 21 19 17 15 13 12 11 10 9 9 9 8 8 8 8 8 7 4 2 2 2 3 4 5 7 7 8 10 12 12 13 14 14 14 14 14 15 16 18 20 22 23 25 28 31 33 34
32 33 33 31 30 29 29 28 26 26 27 28 27 25 23 21 21 19 17 15 13 11 10 9 8 7 7 7 8 8 9 9 6 3 1 1 1 2 3 4 5 6 8 9 11 12 12 13 14 14 14 14 15 17 18 21 23 24 26 28 30 31 32
Wind_Direction
144 139 140 139 138 138 136 134 132 129 126 122 123 124 126 128 128 130 126 121 114 104 99 90 85 85 82 81 77 77 77 74 74 75 69 64 61 56 59 66 63 55 49 44 37 19 332 303 316 331 338 343 347 351 352 352 357 5 9 3 360 2 356
145 142 142 140 140 142 137 133 131 126 120 115 118 122 123 123 125 129 124 118 111 101 96 94 94 94 89 85 82 80 81 78 78 78 74 70 64 58 56 54 51 45 40 36 30 27 21 329 328 330 335 338 341 347 350 352 358 7 10 1 355 359 356
145 143 143 141 141 143 137 134 130 123 120 117 119 119 119 121 122 123 119 112 105 99 97 98 99 97 91 88 85 83 83 83 81 78 74 71 66 62 58 54 48 40 33 29 23 22 23 3 335 321 331 338 333 335 348 353 355 3 9 360 353 357 357
151 150 149 144 144 144 139 135 131 126 123 120 119 115 114 118 119 116 113 108 103 99 98 98 97 95 94 92 89 87 86 84 81 77 72 68 66 65 63 62 59 55 50 43 30 25 26 11 340 322 327 332 323 322 341 348 352 1 6 358 354 356 354
159 158 154 149 149 148 143 138 135 131 127 123 120 116 116 119 117 114 111 106 100 98 99 98 97 96 97 97 94 90 86 81 76 72 69 65 64 66 66 66 65 63 60 54 46 37 33 17 352 328 325 334 327 321 337 345 350 359 4 355 354 354 351
163 161 158 155 154 152 148 144 139 134 128 124 121 120 121 121 117 114 108 102 100 102 103 102 100 101 102 99 94 88 81 77 72 68 67 65 65 67 68 68 65 63 58 52 50 42 33 23 7 346 330 334 319 315 336 346 349 353 357 353 352 352 350
161 161 160 158 156 154 150 146 141 134 127 124 123 124 123 121 116 111 105 104 107 109 108 106 105 105 103 97 91 85 79 75 71 67 68 68 68 67 67 67 64 60 56 50 47 41 33 27 16 2 343 335 316 316 337 347 351 353 346 347 350 350 349
163 162 161 159 157 154 150 146 139 131 127 126 127 126 124 120 116 112 110 111 112 113 111 109 108 106 101 94 89 84 79 73 69 70 72 73 70 66 64 66 64 59 55 49 46 42 37 32 25 16 6 355 336 326 339 344 352 354 345 343 347 349 348
166 162 159 158 156 153 150 145 138 133 131 131 130 128 123 119 117 115 113 112 113 114 114 113 109 105 98 92 88 83 78 74 73 75 75 74 71 67 64 65 64 59 53 50 49 46 42 40 37 31 27 22 4 342 340 340 345 350 348 346 344 345 347
167 164 161 157 154 150 148 145 140 137 137 135 133 130 126 122 120 117 113 112 113 113 113 112 107 102 96 91 87 84 82 81 80 78 74 72 70 69 68 67 66 62 58 59 59 58 55 51 48 44 40 33 21 5 343 337 335 336 343 345 342 339 342
167 165 161 156 152 149 147 147 145 142 141 139 137 135 132 128 124 120 116 114 113 112 110 107 103 98 94 91 90 88 87 85 82 78 74 73 72 72 72 71 70 68 67 66 64 62 60 55 49 43 39 30 20 12 347 327 324 329 335 338 338 337 338
165 162 158 154 152 150 149 149 147 144 142 141 140 138 135 131 127 122 118 116 113 110 106 102 99 96 95 96 96 91 87 85 82 79 77 76 75 75 75 73 72 71 69 67 65 62 59 54 47 40 37 31 23 12 354 335 320 326 331 331 331 335 337
162 159 155 154 153 152 150 149 146 144 143 142 142 140 135 132 129 124 120 117 113 108 104 101 100 100 100 100 96 91 88 86 84 81 80 79 78 77 76 75 72 70 68 65 63 61 57 54 49 43 37 29 24 16 358 345 325 321 329 331 329 332 337
158 156 154 155 155 153 151 148 146 144 143 142 142 140 135 132 129 125 121 117 112 108 105 103 103 105 105 101 94 91 90 89 86 84 83 81 80 79 78 75 71 67 64 61 58 55 51 48 44 39 32 22 15 12 358 339 322 315 327 335 334 333 338
157 155 155 155 154 152 150 148 147 145 142 141 142 141 137 133 130 127 122 116 112 109 107 106 107 109 108 101 95 93 92 90 88 86 85 83 81 79 76 72 68 63 58 55 51 46 41 37 33 27 23 16 7 5 0 342 326 317 323 332 336 336 339
156 156 155 154 152 151 149 148 149 147 143 141 142 142 139 135 132 128 122 117 115 112 109 109 110 110 107 102 98 95 93 91 90 88 86 84 80 76 71 65 60 55 49 46 42 37 32 27 23 19 15 12 4 360 359 349 335 324 320 326 332 334 336
156 155 153 152 150 149 149 149 151 148 144 143 144 143 140 137 134 129 124 121 117 113 111 111 110 108 106 104 101 98 96 93 91 89 86 82 76 70 65 60 54 48 43 39 34 30 27 23 19 16 12 9 5 360 358 354 344 332 321 320 327 330 332
155 154 152 151 150 150 150 151 151 148 146 146 145 143 141 138 136 131 126 123 118 114 112 111 109 107 107 107 104 102 100 97 93 89 84 79 73 66 60 54 48 43 37 33 31 27 25 24 21 17 14 11 7 3 360 356 349 339 327 319 322 328 332
156 154 153 152 151 152 152 152 151 149 149 148 146 144 141 139 137 132 128 125 119 114 110 107 106 107 109 110 108 105 103 99 94 89 83 76 69 62 56 50 43 38 33 28 27 27 26 26 24 21 18 15 10 6 2 358 352 344 334 326 324 327 332
157 156 154 153 152 152 153 153 152 150 150 150 147 144 142 140 137 134 130 126 120 113 108 104 102 104 108 109 109 108 104 100 94 87 80 73 66 59 53 48 43 38 34 29 25 26 27 25 25 23 20 17 13 7 2 358 353 347 340 334 331 330 332
157 156 154 152 151 150 151 152 149 148 149 149 147 146 144 142 138 135 133 129 123 115 109 105 101 101 104 106 108 107 104 100 93 87 80 72 65 59 52 49 46 40 37 35 31 29 27 24 22 22 21 19 14 7 2 358 354 349 344 338 335 335 334
156 155 153 151 149 148 148 147 145 146 147 147 147 146 145 143 140 137 134 132 127 120 114 110 106 101 100 101 103 103 101 98 93 87 80 73 65 59 53 49 46 43 40 38 36 33 29 25 21 20 20 18 13 7 4 1 357 351 347 341 338 339 338
154 154 152 150 148 146 145 145 144 145 145 146 146 145 145 144 142 139 136 135 132 126 122 119 115 108 101 98 99 100 98 95 92 88 80 73 65 57 52 47 44 42 39 37 35 32 28 25 22 22 21 19 15 11 7 4 0 355 350 344 341 341 340
154 154 152 150 148 145 145 145 145 144 144 144 144 145 145 144 142 141 139 138 136 132 130 129 125 119 109 101 97 98 98 95 93 89 80 71 62 54 49 46 43 40 36 33 31 28 25 22 22 24 25 25 23 19 14 8 3 358 354 348 344 343 342
154 153 152 150 148 146 146 147 147 146 145 145 145 145 145 143 143 143 143 141 140 138 138 138 134 129 122 110 99 95 96 96 94 89 79 67 56 49 45 44 43 40 35 32 28 23 20 19 21 26 27 28 28 26 22 17 9 4 358 351 346 345 344
153 152 152 151 148 147 148 149 150 149 147 146 146 145 144 143 143 145 146 145 143 142 142 144 141 137 133 123 106 95 94 96 95 86 73 60 50 43 42 42 42 39 35 31 26 21 17 17 21 26 28 28 27 26 26 23 19 14 6 358 350 347 348
153 153 153 151 149 149 149 150 152 153 151 150 149 146 145 145 144 146 148 146 146 146 145 147 147 144 143 136 115 100 98 99 94 82 67 55 45 41 41 42 41 37 33 29 24 19 17 18 21 23 25 26 25 24 24 22 21 19 13 8 359 353 354
155 154 153 152 150 149 149 149 152 155 155 154 152 149 148 147 146 147 149 149 147 147 147 150 154 152 148 143 126 106 103 103 93 78 65 51 42 42 46 46 42 36 33 29 22 18 16 17 19 21 22 24 22 22 23 21 20 18 15 13 8 2 2
156 156 155 153 152 150 148 149 152 155 156 155 154 152 150 150 148 147 148 150 147 143 143 149 158 159 153 146 136 118 108 104 92 77 63 49 44 49 51 48 44 38 33 29 22 17 17 16 18 20 21 21 20 19 21 21 22 21 18 17 15 12 10
159 158 158 156 154 152 150 149 151 156 157 155 155 155 153 151 151 149 148 148 144 139 140 146 154 159 158 152 145 133 118 107 94 78 60 49 50 57 57 51 46 39 33 29 21 17 17 17 17 19 19 18 18 17 16 17 20 21 21 20 20 19 16
161 162 162 160 157 155 152 150 152 155 156 155 155 156 155 152 151 152 151 147 143 140 140 144 152 157 159 158 155 147 133 118 106 87 64 60 61 63 64 57 47 39 34 29 22 17 18 19 18 18 16 15 16 17 14 13 13 16 19 20 20 20 18
165 166 165 164 161 158 154 151 151 152 153 154 153 154 155 153 151 152 154 152 150 147 142 143 149 154 154 156 160 157 149 142 132 110 78 74 73 67 67 62 50 41 34 27 22 17 18 20 20 19 16 13 14 15 13 11 11 11 14 16 17 17 17
168 168 168 168 165 162 157 153 151 150 150 150 150 151 154 154 151 152 156 158 158 158 155 152 152 155 156 158 162 166 171 171 151 123 85 77 79 70 66 62 53 45 34 27 23 18 17 20 22 20 17 16 15 12 10 10 11 12 13 15 17 17 15
169 171 174 173 169 165 162 157 154 151 149 148 147 147 149 151 149 148 152 158 160 162 166 165 162 164 167 169 174 184 192 178 155 132 88 74 79 71 65 59 53 45 35 27 22 18 17 20 21 20 20 19 16 10 7 9 11 14 15 16 18 18 16
171 176 180 177 171 167 165 163 158 154 151 149 147 146 146 146 146 145 147 152 155 155 161 167 166 167 173 178 185 195 192 172 157 142 107 88 84 76 67 57 50 43 34 26 22 18 17 17 18 20 20 17 12 9 9 11 12 14 17 18 19 19 16
174 177 180 179 174 171 169 167 164 159 156 152 149 147 148 147 148 148 149 151 153 153 155 161 165 168 175 182 187 188 180 169 161 151 130 114 104 85 71 58 50 42 30 24 21 17 16 16 17 18 17 14 12 10 10 12 14 16 18 19 19 18 16
178 178 179 179 177 174 172 171 169 165 161 157 154 153 154 155 155 154 154 155 157 159 161 163 165 168 174 182 184 179 173 169 166 165 158 148 141 97 72 59 50 40 27 21 20 18 17 18 19 18 16 14 13 12 13 14 15 17 19 19 18 16 16